Flag for France Weather past 2 weeks in Rouen, France

Now
54 °F

Fog.


Feels Like: 52 °F
Forecast: 46 / 65 °F
Wind: 7 mph from West

Location: Rouen Airport

Current Time: May 25, 2015 at 6:23:58 AM

Latest Report: May 25, 2015 at 5:30 AM


Visibility: 3 mi

Pressure: 30.07 "Hg

Humidity: 100%

Dew point: 54 °F

Location of RouenLocation

Historic Weather in Rouen — Graph

°F

Rouen temperature yesterday

Maximum temperature yesterday: 66 °F (at 3:30 PM)
Minimum temperature yesterday: 48 °F (at 5:30 AM)
Average temperature yesterday: 58 °F

Past Weeks' High & Low Weather Summary

 TemperatureHumidityPressure
High77 °F (May 11, 2:00 PM)100% (May 10, 5:00 AM)30.39 "Hg (May 10, 5:00 AM)
Low37 °F (May 13, 5:30 AM)45% (May 17, 2:00 PM)29.77 "Hg (May 18, 4:30 PM)
Average54 °F77%30.13 "Hg
* Reported May 10 4:00 AM — May 25 4:30 AM, Rouen, Weather by CustomWeather, © 2015

Note: Actual official high and low records may vary slightly from our data, if they occured in-between our weather recording intervals... More about our weather records

Advertising

Rouen weather history for previous 24 hours

 ConditionsComfort  
Time TempWeatherWind HumidityBarometerVisibility
4:30 AM
Mon, May 25
54 °FFog.8 mph100%30.09 "Hg3 mi
4:00 AM54 °FDrizzle. Fog.7 mph100%30.09 "Hg2 mi
3:30 AM54 °FDrizzle. Low clouds.6 mph100%30.09 "Hg4 mi
3:00 AM54 °FDrizzle. Fog.6 mph94%30.09 "Hg3 mi
2:30 AM54 °FFog.5 mph94%30.09 "Hg3 mi
2:00 AM54 °FMostly cloudy.6 mph94%30.09 "Hg4 mi
1:30 AM54 °FRain. Fog.5 mph94%30.09 "Hg2 mi
1:00 AM54 °FDrizzle. Mostly cloudy.6 mph94%30.09 "HgN/A
12:30 AM55 °FLight rain. Mostly cloudy.5 mph88%30.12 "HgN/A
12:00 AM55 °FOvercast.6 mph82%30.12 "HgN/A
11:30 PM
Sun, May 24
55 °FOvercast.5 mph82%30.12 "HgN/A
11:00 PM55 °FClear.6 mph77%30.12 "Hg10 mi
10:30 PM55 °FSunny.8 mph77%30.12 "Hg10 mi
10:00 PM57 °FPassing clouds.9 mph67%30.12 "HgN/A
9:30 PM59 °FMostly cloudy.8 mph72%30.12 "HgN/A
9:00 PM61 °FMostly cloudy.10 mph72%30.12 "HgN/A
8:30 PM61 °FPartly sunny.7 mph72%30.09 "HgN/A
8:00 PM63 °FPartly sunny.13 mph68%30.09 "HgN/A
7:30 PM64 °FPassing clouds.9 mph64%30.09 "HgN/A
7:00 PM66 °FSunny.12 mph60%30.09 "Hg10 mi
6:30 PM66 °FPassing clouds.10 mph60%30.09 "HgN/A
6:00 PM66 °FMore clouds than sun.10 mph64%30.09 "HgN/A
5:30 PM64 °FPartly sunny.8 mph64%30.12 "HgN/A
5:00 PM66 °FMore clouds than sun.9 mph64%30.12 "HgN/A
4:30 PM66 °FPartly sunny.6 mph64%30.12 "HgN/A
4:00 PM66 °FBroken clouds.8 mph60%30.12 "HgN/A
3:30 PM66 °FPassing clouds.7 mph60%30.12 "HgN/A
3:00 PM64 °FPassing clouds.7 mph64%30.15 "HgN/A
2:30 PM63 °FOvercast.7 mph64%30.15 "HgN/A
2:00 PM63 °FPassing clouds.7 mph64%30.15 "HgN/A
1:30 PM61 °FMostly cloudy.9 mph63%30.15 "HgN/A
1:00 PM61 °FPassing clouds.7 mph63%30.15 "HgN/A
12:30 PM61 °FSunny.8 mph63%30.15 "Hg10 mi
12:00 PM63 °FSunny.8 mph64%30.15 "Hg10 mi
11:30 AM61 °FPassing clouds.5 mph63%30.15 "HgN/A
11:00 AM63 °FPassing clouds.5 mph59%30.15 "HgN/A
10:30 AM59 °FSunny.3 mph68%30.15 "Hg10 mi
10:00 AM59 °FPassing clouds.3 mph68%30.15 "HgN/A
9:30 AM57 °FSunny.2 mph67%30.15 "Hg10 mi
9:00 AM55 °FPassing clouds.3 mph77%30.15 "HgN/A
8:30 AM54 °FSunny.2 mph77%30.18 "Hg10 mi
8:00 AM52 °FSunny.3 mph77%30.18 "Hg10 mi
7:30 AM52 °FSunny.5 mph82%30.15 "Hg10 mi
7:00 AM48 °FClear.2 mph94%30.15 "Hg10 mi
6:30 AM48 °FClear.No wind94%30.15 "Hg10 mi
6:00 AM48 °FClear.2 mph94%30.15 "Hg10 mi
Weather by CustomWeather, © 2015

See weather overviewHow to use our weather pages